www.pogodaiklimat.ru
Время
и дата
09:07 30.12
09:51 30.12
10:11 30.12
10:51 30.12
11:51 30.12
12:51 30.12
13:51 30.12
14:51 30.12
15:51 30.12
16:08 30.12
16:51 30.12
17:36 30.12
17:51 30.12
18:29 30.12
18:51 30.12
19:51 30.12
20:38 30.12
20:51 30.12
21:32 30.12
21:51 30.12
22:17 30.12
22:39 30.12
22:51 30.12
23:51 30.12
00:51 31.12
01:32 31.12
01:51 31.12
02:51 31.12
03:51 31.12
04:51 31.12
05:51 31.12
06:51 31.12
07:51 31.12
08:51 31.12
09:51 31.12
10:51 31.12
11:51 31.12
12:51 31.12
13:01 31.12
13:51 31.12
14:17 31.12
14:35 31.12
14:51 31.12
15:51 31.12
16:33 31.12
16:42 31.12
16:51 31.12
16:58 31.12
Ветер
(напр.,м/с)
Видим. Явления Облачность Т
(С)
Тd
(С)
f
(%)
Тe
(С)
Тes
(С)
Комфортность P
(гПа)
Po
(гПа)
Тmin
(С)
Tmax
(С)
R
(мм)
R24
(мм)
S
(см)
С 1 16 км 10/10 840 м -1.1 -4.4 78 -6 -6 988.6
С 1 16 км 10/10 780 м -0.6 -3.9 78 -4 -4 1013.5 988.6
С 1 16 км 10/10 690 м -0.6 -3.9 78 -5 -5 988.6
С 1 16 км 10/10 630 м 0.0 -3.9 75 -3 -3 1012.5 987.6
С 1 16 км 10/10 570 м +1.1 -2.8 75 -2 -2 1011.7 986.6 -1.7 +1.1
штиль 0 16 км 10/10 510 м +2.2 -2.2 73 +1 +1 1010.3 985.6
Ю 1 16 км 10/10 570 м +2.8 -1.7 72 0 0 1009.9 985.3
ЮВ 1 13 км 10/10 570 м +2.2 -1.1 79 -1 -1 1009.5 984.6
Ю 1 10 км мгла 10/10 480 м +2.2 -1.1 79 -2 -2 1009.8 985.0
Ю 1 10 км мгла 10/10 420 м +2.2 -1.1 79 -2 -2 985.0
Ю 1 10 км мгла 10/10 390 м +2.2 -1.1 79 -2 -2 1009.4 984.6
Ю 1 8 км слабая морось, дымка 10/10 270 м +1.7 -0.6 85 -3 -3 985.0
Ю 1 8 км слабая морось, дымка 10/10 240 м +1.7 -0.6 85 -3 -3 1009.7 985.0 +1.1 +2.8
Ю 1 6 км слабая морось, дымка 10/10 180 м +1.7 0.0 88 -3 -3 985.0
Ю 1 6 км слабая морось, дымка 10/10 150 м +1.7 0.0 88 -2 -2 1009.8 985.0
Ю 1 6 км дымка 10/10 150 м +2.2 +0.6 89 -1 -1 1009.8 985.0
ЮЗ 1 6 км дымка 10/10 210 м +2.2 +0.6 89 -1 -1 984.6
ЮЗ 1 6 км дымка 10/10 210 м +2.2 +0.6 89 -1 -1 1009.4 984.6
ЮЗ 1 8 км дымка 10/10 210 м +2.2 +0.6 89 -2 -2 984.6
ЮЗ 1 8 км дымка 10/10 240 м +2.2 0.0 85 -1 -1 1009.3 984.6
ЮЗ 1 8 км дымка 10/10 300 м +2.2 0.0 85 -1 -1 984.6
ЮЗ 1 10 км дымка 10/10 300 м +2.2 0.0 85 -2 -2 984.3
ЮЗ 1 10 км дымка 10/10 300 м +2.2 0.0 85 -1 -1 1008.9 984.0
З 2 16 км 10/10 510 м +2.2 -0.6 82 -3 -3 1009.7 985.0 +1.7 +2.2
ЮЗ 2
{4}
16 км 10/10 480 м +1.7 -1.7 78 -4 -4 1009.4 984.6
ЮЗ 2 16 км 10/10 420 м +1.7 -1.7 78 -3 -3 984.6
ЮЗ 2 16 км 10/10 420 м +1.7 -1.7 78 -4 -4 1009.9 985.0
З 2 16 км 10/10 420 м +1.1 -2.2 79 -4 -4 1009.7 985.0
З 2 16 км 10/10 390 м +1.1 -2.2 79 -5 -5 1009.7 985.0
З 1 16 км 10/10 360 м +1.1 -2.2 79 -2 -2 1009.8 985.0
СЗ 1 16 км 10/10 360 м +0.6 -2.2 81 -3 -3 1009.4 984.6 +0.6 +2.2
штиль 0 16 км 10/10 420 м +0.6 -2.2 81 0 0 1009.5 984.6
ЮВ 1 14 км 8/8 390 м +0.6 -2.2 81 -3 -3 1009.6 985.0
ЮВ 1 14 км 10/10 450 м +1.1 -2.2 79 -3 -3 1009.4 984.6
В 1 14 км 10/10 450 м +2.2 -1.7 75 -1 -1 1008.9 984.3
ЮВ 2 13 км 8/8 630 м +3.9 -0.6 72 -1 -1 1007.3 982.7
ЮВ 2 11 км 10/10 570 м +5.0 +0.6 73 +1 +1 1006.4 981.7 +0.6 +5.0
В 2 10 км мгла 10/10 450 м +5.0 +1.1 76 +1 +1 1005.7 981.0
ЮВ 2 10 км мгла 10/10 420 м +5.0 +1.7 79 +1 +1 981.0
В 2 8 км мгла 10/10 300 м +5.0 +2.2 82 0 0 1003.4 979.0
В 2 8 км мгла 10/10 270 м +5.0 +2.2 82 +1 +1 978.7
В 1 5 км дымка 10/10 270 м +5.0 +2.8 86 +2 +2 978.7
В 1 5 км дымка 10/10 210 м +5.0 +2.8 86 +2 +2 1002.9 978.4
В 1 3 км дымка 10/10 150 м +5.6 +3.3 85 +3 +3 1003.2 978.7
СВ 2 3 км дымка 10/10 120 м +5.6 +3.3 85 +2 +2 978.4
СВ 2 2 км дымка 10/10 120 м +5.6 +3.3 85 +1 +1 978.4
С 2 2 км дымка 10/10 120 м +5.0 +3.3 89 0 0 1003.0 978.7
С 3
{5}
5 км дымка 10/10 90 м +5.0 +3.3 89 -1 -1 978.7
Местоположение метеостанции Chicago-O`Hare International Airport: широта 41.9797 долгота -87.9044 высота над уровнем моря 203 м.
В архиве по умолчанию представлена погода в Чикаго за последние 1-2 суток. Обновление информации о фактической погоде в базе происходит ежечасно! Архивные данные за месяц целиком и за предыдущие месяцы Вы можете получить, выбрав интересующий диапазон дат из раскрывающегося списка и нажав кнопку "Ввод!".
Внимание! Архив погоды МЕТАР в базе сайта по станциям, не включенным в климатический монитор, хранится не более 60 дней. Нет смысла пытаться выбрать более раннюю дату.
*Определитесь, кто Вы:
Внимание! Время в таблицах - местное (без учета летнего времени). Для получения всемирного времени необходимо вычесть поправку, которая равна -6 ч.
Смотрите также архив погоды в соседних городах и на ближайших метеорологических станциях:
Партнеры нашего сайта:      
Пояснения к столбцам:
  • Ветер - указаны скорость ветра в м/с - средняя за 10 мин, порывы в срок и между сроками (в фигурных скобках) и направление, откуда дует ветер: С - северный,
  • СВ - северо-восточный, В - восточный, ЮВ - юго-восточный, Ю - южный, ЮЗ - юго-западный, З - западный, СЗ - северо-западный.
  • Видимость - горизонтальная дальность видимости в метрах или километрах. При видимости от 1 до 10 км при отсутствии осадков обычно наблюдается дымка, при ухудшении видимости до 1 км и менее - туман. В сухую погоду видимость может ухудшаться дымом, пылью или мглою.
  • Явления - указаны атмосферные явления, наблюдавшиеся в срок или в последний час перед сроком; фигурными скобками обозначены явления, наблюдавшиеся между сроками (за 1-3 часа до срока); квадратными скобками обозначены град или гололедные отложения с указанием их диаметра в мм.
  • Облачность - указаны через наклонную черту общая и нижняя облачность в баллах и высота нижней границы облаков в метрах; квадратными скобками обозначены формы облаков: Ci - перистые, Cs - перисто-слоистые, Cc - перисто-кучевые, Ac - высококучевые, As - высокослоистые, Sc - слоисто-кучевые, Ns - слоисто-дождевые, Cu - кучевые, Cb - кучево-дождевые. Подробнее классификацию облаков см. в Атласе облаков (PDF).
  • T - Температура воздуха - температура, измеренная на высоте 2 м над землей.
  • Td - Температура точки росы - температура, при понижении до которой содержащийся в воздухе водяной пар достигнет насыщения.
  • f - Относительная влажность воздуха - влажноcть воздуха, измеренная на высоте 2 м над землей.
  • Te - Эффективная температура - температура, которую ощущает одетый по сезону человек в тени. Характеристика душности погоды. При расчете учитывается влияние влажности воздуха и скорости ветра на теплоощущения человека.
  • Tes - Эффективная температура на солнце - температура, которую ощущает человек, с поправкой на солнечный нагрев. Характеристика знойности погоды. Зависит от высоты солнца над горизонтом, облачности и скорости ветра. Ночью, в пасмурную погоду, а также при ветре 12 м/с и более поправка равна нулю.
  • P - Атмосферное давление - приведенное к уровню моря атмосферное давление.
  • Po - Атмосферное давление - измеренное на уровне метеостанции атмосферное давление.
  • Tmin - Минимальная температура - минимум температуры воздуха на высоте 2 м над землей.
  • Tmax - Максимальная температура - максимум температуры воздуха на высоте 2 м над землей.
  • R - Количество осадков - Количество выпавших осадков за период времени, мм. При наведении курсора мыши на число - период времени, за который выпало указанное количество осадков.
  • R24 - Количество осадков - Количество выпавших осадков за 24 часа, мм.
  • S - Снежный покров - Высота снежного покрова, см. При наведении курсора мыши на число - состояние снежного покрова и степень покрытия местности в баллах.